Location: Newark
(25.5428°S, 54.5819°W)
Time: 22:23:28
(UTC+00:00)

Envisat - Pass Details

Date: 26 July 2019
Orbit: 764 x 766 km, 98.1° (Epoch: 19 August)

Event Time Altitude Azimuth Distance (km) Brightness Sun altitude
Exits shadow 23:44:04 - 202° (SSW) 2,569 5.9 -34.5°
Reaches altitude 10° 23:44:57 10° 208° (SSW) 2,324 5.7 -34.6°
Maximum altitude 23:48:19 18° 250° (WSW) 1,825 5.5 -35.4°
Drops below altitude 10° 23:51:40 10° 292° (WNW) 2,307 6.2 -36.2°
Sets 23:54:39 0° 310° (NW) 3,225 6.9 -36.8°
